Weather in Bamenda

Cameroon     5°57′32″N   10°09′13″E
temp.,
°C
wind,
m/s
gust,
m/s
humid.,
%
clouds,
%
prec.,
mm/h
press.,
hPa
HPBL,
m
24 september, fri
fri2401:00+15wnw119282 0.0 101620
04:00+15nnw119396 0.0 101517
07:00+16s0093100 0.0 101735
10:00+20se1277100 0.0 1017593
13:00+23ese227166 1.0 10131174
16:00+18ese1193100 4.0 101344
19:00+16ese119450 6.4 101512
22:00+15se119544 0.1 101811
25 september, sat
sat2501:00+15se119479 0.1 101611
04:00+15s1193100 0.0 101511
07:00+16ese1192100 0.0 101728
10:00+21ese1280100 0.9 1017320
13:00+19ese1187100 3.1 1015103
16:00+18e1292100 3.5 1014129
19:00+17sse119495 4.7 101521
22:00+16se119399 0.1 101811
26 september, sun
sun2601:00+15se119593 0.2 101714
04:00+15sse019390 0.0 101611
07:00+16se018995 0.0 101714
10:00+21e127172 0.6 1017397
13:00+22ese227494 2.3 1014769
16:00+19sse118796 2.8 101342
19:00+17wnw119079 3.7 101511
22:00+16w119553 0.2 101616
27 september, mon
mon2701:00+15wsw1196100 0.2 101615
04:00+15wsw019556 0.1 101513
07:00+16wsw019394 0.1 101626
10:00+23n0166100 0.0 1016752
13:00+24nnw1161100 0.5 10121407
16:00+20nnw1287100 3.9 1011116
19:00+17w01939 6.9 101311
22:00+17sw119080 0.7 101511
28 september, tue
tue2801:00+16w119417 0.8 101411
04:00+15wnw019690 1.2 101313
07:00+16wnw119678 2.3 101551
10:00+21wnw117973 1.4 1015711
13:00+23ene117142 3.6 10111070
16:00+21nw118144 4.1 1009547
19:00+17s119419 8.6 101211
22:00+17s019599 2.7 101516